Volver al catálogo

BLOCK DM-SL DEB

LostMEO
NORAD 45042·DEBRIS·🇷🇺 Russia

Lanzado Dec 24, 2019 desde Baikonur Cosmodrome

Loading…

Próximos Pases (próximas 24 horas)

TLE

ObsoletoSource: Space-Track

Época: Aug 31, 2022, 03:39 UTC

1 45042U 19095D   22243.15228507 -.00000159  00000-0  00000+0 0  9997
2 45042   1.8432  90.7056 0577101 275.8481  77.9535  1.02393406 10036

Sigue BLOCK DM-SL DEB en tiempo real con AllMySat

Download on the App Store